Time,TemperatureF,DewpointF,PressureIn,WindDirection,WindDirectionDegrees,WindSpeedMPH,WindSpeedGustMPH,Humidity,HourlyPrecipIn,Conditions,Clouds,dailyrainin,SoftwareType,DateUTC
2013-04-15 00:00:00,59.4,54.2,29.80,North,0,0.0,0.0,83,0.00,,---,0.00,VWS V14.01,2013-04-15 05:00:00,
2013-04-15 00:30:00,59.6,54.4,29.82,North,0,0.0,0.0,83,0.00,,---,0.00,VWS V14.01,2013-04-15 05:30:00,
2013-04-15 01:00:00,59.6,54.8,29.82,North,0,0.0,0.0,84,0.00,,---,0.00,VWS V14.01,2013-04-15 06:00:00,
2013-04-15 01:30:00,59.1,54.6,29.81,North,0,0.0,0.0,85,0.00,,---,0.00,VWS V14.01,2013-04-15 06:30:00,
2013-04-15 02:00:00,58.7,54.5,29.81,North,0,0.0,0.0,86,0.00,,---,0.00,VWS V14.01,2013-04-15 07:00:00,
2013-04-15 02:30:00,58.1,54.3,29.80,North,0,0.0,0.0,87,0.00,,---,0.00,VWS V14.01,2013-04-15 07:30:00,
2013-04-15 03:00:00,57.7,54.2,29.82,North,0,0.0,0.0,88,0.00,,---,0.00,VWS V14.01,2013-04-15 08:00:00,
2013-04-15 03:30:00,57.6,54.4,29.82,North,0,0.0,0.0,89,0.00,,---,0.00,VWS V14.01,2013-04-15 08:30:00,
2013-04-15 04:00:00,57.2,54.3,29.82,North,0,0.0,0.0,90,0.00,,---,0.00,VWS V14.01,2013-04-15 09:00:00,
2013-04-15 04:30:00,57.2,54.6,29.83,North,0,0.0,0.0,91,0.00,,---,0.00,VWS V14.01,2013-04-15 09:30:00,
2013-04-15 05:00:00,57.3,54.4,29.83,North,0,0.0,0.0,90,0.00,,---,0.00,VWS V14.01,2013-04-15 10:00:00,
2013-04-15 05:42:00,57.0,54.4,29.84,SE,142,0.0,0.0,91,0.00,,---,0.00,VWS V14.01,2013-04-15 10:42:00,
2013-04-15 05:47:00,57.0,54.4,29.84,ESE,109,0.0,0.0,91,0.00,,---,0.00,VWS V14.01,2013-04-15 10:47:00,
2013-04-15 05:52:00,56.9,54.6,29.85,ESE,121,0.0,0.0,92,0.00,,---,0.00,VWS V14.01,2013-04-15 10:52:00,
2013-04-15 05:57:00,56.9,54.6,29.85,ESE,122,0.0,0.0,92,0.00,,---,0.00,VWS V14.01,2013-04-15 10:57:00,
2013-04-15 06:02:00,56.9,54.6,29.85,SE,128,0.0,0.0,92,0.00,,---,0.00,VWS V14.01,2013-04-15 11:02:00,
2013-04-15 06:07:00,56.8,54.5,29.85,SE,128,0.0,0.0,92,0.00,,---,0.00,VWS V14.01,2013-04-15 11:07:00,
2013-04-15 06:12:00,56.8,54.5,29.85,SE,136,0.0,0.0,92,0.00,,---,0.00,VWS V14.01,2013-04-15 11:12:00,
2013-04-15 06:17:00,56.8,54.5,29.85,ESE,119,0.0,0.0,92,0.00,,---,0.00,VWS V14.01,2013-04-15 11:17:00,
2013-04-15 06:22:00,56.8,54.5,29.86,SE,143,0.0,0.0,92,0.00,,---,0.00,VWS V14.01,2013-04-15 11:22:00,
2013-04-15 06:27:00,56.8,54.5,29.85,ESE,117,0.0,0.0,92,0.00,,---,0.00,VWS V14.01,2013-04-15 11:27:00,
2013-04-15 06:32:00,56.9,54.6,29.86,East,96,0.0,0.0,92,0.00,,---,0.00,VWS V14.01,2013-04-15 11:32:00,
2013-04-15 06:37:00,56.9,54.6,29.86,SSE,149,0.0,0.0,92,0.00,,---,0.00,VWS V14.01,2013-04-15 11:37:00,
2013-04-15 06:42:00,56.9,54.6,29.86,East,97,0.0,0.0,92,0.00,,---,0.00,VWS V14.01,2013-04-15 11:42:00,
2013-04-15 06:47:00,57.0,55.0,29.86,SE,138,0.0,0.0,93,0.00,,---,0.00,VWS V14.01,2013-04-15 11:47:00,
2013-04-15 06:52:00,57.1,55.1,29.86,ESE,117,0.0,0.0,93,0.00,,---,0.00,VWS V14.01,2013-04-15 11:52:00,
2013-04-15 06:57:00,57.1,55.1,29.86,ESE,103,0.0,0.0,93,0.00,,---,0.00,VWS V14.01,2013-04-15 11:57:00,
2013-04-15 07:02:00,57.3,55.3,29.87,ESE,107,0.0,0.0,93,0.00,,---,0.00,VWS V14.01,2013-04-15 12:02:00,
2013-04-15 07:07:00,57.3,55.0,29.88,ESE,118,0.0,0.0,92,0.00,,---,0.00,VWS V14.01,2013-04-15 12:07:00,
2013-04-15 07:12:00,57.4,55.1,29.88,ESE,118,0.0,0.0,92,0.00,,---,0.00,VWS V14.01,2013-04-15 12:12:00,
2013-04-15 07:17:00,57.5,55.2,29.88,ESE,121,0.0,0.0,92,0.00,,---,0.00,VWS V14.01,2013-04-15 12:17:00,
2013-04-15 07:22:00,57.5,55.2,29.88,SE,133,0.0,0.0,92,0.00,,---,0.00,VWS V14.01,2013-04-15 12:22:00,
2013-04-15 07:27:00,57.5,55.2,29.88,SE,141,0.0,0.0,92,0.00,,---,0.00,VWS V14.01,2013-04-15 12:27:00,
2013-04-15 07:33:00,57.6,55.6,29.88,SSE,155,0.0,0.0,93,0.00,,---,0.00,VWS V14.01,2013-04-15 12:33:00,
2013-04-15 07:38:00,57.7,55.7,29.88,SSE,162,0.0,0.0,93,0.00,,---,0.00,VWS V14.01,2013-04-15 12:38:00,
2013-04-15 07:43:00,57.7,55.7,29.89,SE,134,0.0,0.0,93,0.00,,---,0.00,VWS V14.01,2013-04-15 12:43:00,
2013-04-15 07:48:00,57.8,55.8,29.88,ESE,117,0.0,0.0,93,0.00,,---,0.00,VWS V14.01,2013-04-15 12:48:00,
2013-04-15 07:53:00,58.0,56.0,29.88,SE,139,0.0,0.0,93,0.00,,---,0.00,VWS V14.01,2013-04-15 12:53:00,
2013-04-15 07:57:00,58.2,56.2,29.89,SE,140,0.0,0.0,93,0.00,,---,0.00,VWS V14.01,2013-04-15 12:57:00,
2013-04-15 08:03:00,58.4,56.4,29.89,ESE,106,0.0,0.0,93,0.00,,---,0.00,VWS V14.01,2013-04-15 13:03:00,
2013-04-15 08:07:00,58.6,56.3,29.88,ENE,77,0.0,0.0,92,0.00,,---,0.00,VWS V14.01,2013-04-15 13:07:00,
2013-04-15 08:12:00,58.8,56.5,29.88,ESE,121,0.0,0.0,92,0.00,,---,0.00,VWS V14.01,2013-04-15 13:12:00,
2013-04-15 08:17:00,58.9,56.6,29.88,ESE,115,0.0,0.0,92,0.00,,---,0.00,VWS V14.01,2013-04-15 13:17:00,
2013-04-15 08:23:00,59.1,56.8,29.89,ESE,111,0.0,0.0,92,0.00,,---,0.00,VWS V14.01,2013-04-15 13:23:00,
2013-04-15 08:28:00,59.3,57.0,29.89,ESE,119,0.0,0.0,92,0.00,,---,0.00,VWS V14.01,2013-04-15 13:28:00,
2013-04-15 08:33:00,59.5,57.2,29.88,SE,125,0.0,0.0,92,0.00,,---,0.00,VWS V14.01,2013-04-15 13:33:00,
2013-04-15 08:38:00,59.8,57.2,29.88,South,169,0.0,0.0,91,0.00,,---,0.00,VWS V14.01,2013-04-15 13:38:00,
2013-04-15 08:43:00,60.2,57.6,29.88,ESE,111,0.0,0.0,91,0.00,,---,0.00,VWS V14.01,2013-04-15 13:43:00,
2013-04-15 08:48:00,60.5,57.9,29.88,SSE,157,0.0,0.0,91,0.00,,---,0.00,VWS V14.01,2013-04-15 13:48:00,
2013-04-15 08:53:00,60.7,57.8,29.88,SE,127,0.0,0.0,90,0.00,,---,0.00,VWS V14.01,2013-04-15 13:53:00,
2013-04-15 08:58:00,61.1,58.2,29.89,SSE,148,0.0,0.0,90,0.00,,---,0.00,VWS V14.01,2013-04-15 13:58:00,
2013-04-15 09:03:00,61.5,58.2,29.89,SSE,163,0.0,0.0,89,0.00,,---,0.00,VWS V14.01,2013-04-15 14:03:00,
2013-04-15 09:08:00,61.9,58.6,29.89,South,176,0.0,0.0,89,0.00,,---,0.00,VWS V14.01,2013-04-15 14:08:00,
2013-04-15 09:13:00,62.4,58.8,29.89,SE,133,0.0,0.0,88,0.00,,---,0.00,VWS V14.01,2013-04-15 14:13:00,
2013-04-15 09:18:00,62.5,58.6,29.89,SSE,167,0.0,0.0,87,0.00,,---,0.00,VWS V14.01,2013-04-15 14:18:00,
2013-04-15 09:23:00,62.6,58.7,29.90,SE,132,0.0,0.0,87,0.00,,---,0.00,VWS V14.01,2013-04-15 14:23:00,
2013-04-15 09:28:00,62.9,59.0,29.90,South,169,0.0,0.0,87,0.00,,---,0.00,VWS V14.01,2013-04-15 14:28:00,
2013-04-15 09:33:00,63.1,59.2,29.90,SE,135,0.0,0.0,87,0.00,,---,0.00,VWS V14.01,2013-04-15 14:33:00,
2013-04-15 09:38:00,63.4,59.2,29.90,SSE,165,0.0,0.0,86,0.00,,---,0.00,VWS V14.01,2013-04-15 14:38:00,
2013-04-15 09:43:00,63.7,59.4,29.90,SSE,152,0.0,0.0,86,0.00,,---,0.00,VWS V14.01,2013-04-15 14:43:00,
2013-04-15 09:48:00,64.4,59.8,29.89,SE,142,0.0,0.0,85,0.00,,---,0.00,VWS V14.01,2013-04-15 14:48:00,
2013-04-15 09:53:00,65.0,60.0,29.89,ESE,113,0.0,0.0,84,0.00,,---,0.00,VWS V14.01,2013-04-15 14:53:00,
2013-04-15 09:58:00,65.6,60.0,29.89,ESE,106,0.0,0.0,82,0.00,,---,0.00,VWS V14.01,2013-04-15 14:58:00,
2013-04-15 10:03:00,66.2,60.9,29.89,ESE,113,0.0,0.0,83,0.00,,---,0.00,VWS V14.01,2013-04-15 15:03:00,
2013-04-15 10:08:00,66.8,61.1,29.90,SSE,155,0.0,0.0,82,0.00,,---,0.00,VWS V14.01,2013-04-15 15:08:00,
2013-04-15 10:13:00,67.3,60.6,29.90,ESE,105,0.0,0.0,79,0.00,,---,0.00,VWS V14.01,2013-04-15 15:13:00,
2013-04-15 10:18:00,67.5,60.8,29.90,SSE,164,0.0,0.0,79,0.00,,---,0.00,VWS V14.01,2013-04-15 15:18:00,
2013-04-15 10:23:00,68.1,61.3,29.90,ESE,109,0.0,0.0,79,0.00,,---,0.00,VWS V14.01,2013-04-15 15:23:00,
2013-04-15 10:28:00,68.5,61.4,29.90,ESE,118,0.0,0.0,78,0.00,,---,0.00,VWS V14.01,2013-04-15 15:28:00,
2013-04-15 10:33:00,69.0,61.1,29.90,SSE,147,0.0,0.0,76,0.00,,---,0.00,VWS V14.01,2013-04-15 15:33:00,
2013-04-15 10:38:00,69.2,61.0,29.90,SSE,159,0.0,0.0,75,0.00,,---,0.00,VWS V14.01,2013-04-15 15:38:00,
2013-04-15 10:43:00,69.1,61.2,29.90,SE,140,0.0,0.0,76,0.00,,---,0.00,VWS V14.01,2013-04-15 15:43:00,
2013-04-15 10:48:00,69.5,61.2,29.90,SSE,159,0.0,0.0,75,0.00,,---,0.00,VWS V14.01,2013-04-15 15:48:00,
2013-04-15 10:53:00,69.8,61.5,29.90,SSE,152,0.0,0.0,75,0.00,,---,0.00,VWS V14.01,2013-04-15 15:53:00,
2013-04-15 10:58:00,70.3,62.0,29.90,SE,140,0.0,0.0,75,0.00,,---,0.00,VWS V14.01,2013-04-15 15:58:00,
2013-04-15 11:03:00,71.1,62.0,29.90,SE,141,0.0,0.0,73,0.00,,---,0.00,VWS V14.01,2013-04-15 16:03:00,
2013-04-15 11:08:00,71.9,62.8,29.90,ESE,115,0.0,0.0,73,0.00,,---,0.00,VWS V14.01,2013-04-15 16:08:00,
2013-04-15 11:13:00,72.5,62.6,29.90,SSE,163,0.0,0.0,71,0.00,,---,0.00,VWS V14.01,2013-04-15 16:13:00,
2013-04-15 11:18:00,72.4,62.5,29.91,SSE,160,0.0,0.0,71,0.00,,---,0.00,VWS V14.01,2013-04-15 16:18:00,
2013-04-15 11:23:00,72.6,62.7,29.91,SE,132,0.0,0.0,71,0.00,,---,0.00,VWS V14.01,2013-04-15 16:23:00,
2013-04-15 11:28:00,73.0,63.0,29.91,SE,135,0.0,0.0,71,0.00,,---,0.00,VWS V14.01,2013-04-15 16:28:00,
2013-04-15 11:33:00,73.7,62.9,29.90,SSE,161,0.0,0.0,69,0.00,,---,0.00,VWS V14.01,2013-04-15 16:33:00,
2013-04-15 11:38:00,74.0,63.6,29.90,SSE,150,0.0,0.0,70,0.00,,---,0.00,VWS V14.01,2013-04-15 16:38:00,
2013-04-15 11:43:00,74.3,63.5,29.90,SE,128,0.0,0.0,69,0.00,,---,0.00,VWS V14.01,2013-04-15 16:43:00,
2013-04-15 11:48:00,74.8,63.5,29.90,SSE,159,0.0,0.0,68,0.00,,---,0.00,VWS V14.01,2013-04-15 16:48:00,
2013-04-15 11:53:00,75.1,63.4,29.90,East,88,0.0,0.0,67,0.00,,---,0.00,VWS V14.01,2013-04-15 16:53:00,
2013-04-15 11:58:00,75.4,63.7,29.89,ESE,121,0.0,0.0,67,0.00,,---,0.00,VWS V14.01,2013-04-15 16:58:00,
2013-04-15 12:03:00,75.7,63.1,29.89,ENE,71,0.0,0.0,65,0.00,,---,0.00,VWS V14.01,2013-04-15 17:03:00,
2013-04-15 12:08:00,75.8,63.6,29.89,ESE,117,0.0,0.0,66,0.00,,---,0.00,VWS V14.01,2013-04-15 17:08:00,
2013-04-15 12:13:00,75.8,63.2,29.89,SSE,161,0.0,0.0,65,0.00,,---,0.00,VWS V14.01,2013-04-15 17:13:00,
2013-04-15 12:18:00,75.9,63.3,29.88,East,98,0.0,0.0,65,0.00,,---,0.00,VWS V14.01,2013-04-15 17:18:00,
2013-04-15 12:21:00,76.1,63.5,29.89,SSE,147,0.0,0.0,65,0.00,,---,0.00,VWS V14.01,2013-04-15 17:21:00,
2013-04-15 12:22:00,76.2,63.6,29.89,SSE,152,0.0,0.0,65,0.00,,---,0.00,VWS V14.01,2013-04-15 17:22:00,
2013-04-15 12:24:00,76.4,62.9,29.89,ESE,123,0.0,0.0,63,0.00,,---,0.00,VWS V14.01,2013-04-15 17:24:00,
2013-04-15 12:29:00,76.8,63.3,29.89,ESE,112,0.0,0.0,63,0.00,,---,0.00,VWS V14.01,2013-04-15 17:29:00,
2013-04-15 12:34:00,77.2,63.2,29.88,South,169,0.0,0.0,62,0.00,,---,0.00,VWS V14.01,2013-04-15 17:34:00,
2013-04-15 12:39:00,77.5,63.0,29.88,SE,130,0.0,0.0,61,0.00,,---,0.00,VWS V14.01,2013-04-15 17:39:00,
2013-04-15 12:44:00,77.9,63.4,29.88,SE,143,0.0,0.0,61,0.00,,---,0.00,VWS V14.01,2013-04-15 17:44:00,
2013-04-15 12:49:00,77.9,63.8,29.88,ESE,113,0.0,0.0,62,0.00,,---,0.00,VWS V14.01,2013-04-15 17:49:00,
2013-04-15 12:54:00,78.0,63.5,29.88,ESE,104,0.0,0.0,61,0.00,,---,0.00,VWS V14.01,2013-04-15 17:54:00,
2013-04-15 13:00:00,78.2,63.2,29.88,SE,132,0.0,0.0,60,0.00,,---,0.00,VWS V14.01,2013-04-15 18:00:00,
2013-04-15 13:05:00,78.2,63.2,29.87,SE,143,0.0,0.0,60,0.00,,---,0.00,VWS V14.01,2013-04-15 18:05:00,
2013-04-15 13:09:00,78.1,62.6,29.87,East,90,0.0,0.0,59,0.00,,---,0.00,VWS V14.01,2013-04-15 18:09:00,
2013-04-15 13:15:00,77.9,62.9,29.87,SSE,155,0.0,0.0,60,0.00,,---,0.00,VWS V14.01,2013-04-15 18:15:00,
2013-04-15 13:20:00,77.6,62.6,29.87,SE,126,0.0,0.0,60,0.00,,---,0.00,VWS V14.01,2013-04-15 18:20:00,
2013-04-15 13:24:00,77.5,62.5,29.87,South,186,0.0,0.0,60,0.00,,---,0.00,VWS V14.01,2013-04-15 18:24:00,
2013-04-15 13:29:00,77.7,62.2,29.87,SE,130,0.0,0.0,59,0.00,,---,0.00,VWS V14.01,2013-04-15 18:29:00,
2013-04-15 13:34:00,77.8,63.3,29.87,SSE,156,0.0,0.0,61,0.00,,---,0.00,VWS V14.01,2013-04-15 18:34:00,
2013-04-15 13:39:00,77.6,63.1,29.87,ESE,113,0.0,0.0,61,0.00,,---,0.00,VWS V14.01,2013-04-15 18:39:00,
2013-04-15 13:44:00,77.5,63.5,29.86,South,174,0.0,0.0,62,0.00,,---,0.00,VWS V14.01,2013-04-15 18:44:00,
2013-04-15 13:49:00,78.0,63.5,29.86,East,98,0.0,0.0,61,0.00,,---,0.00,VWS V14.01,2013-04-15 18:49:00,
2013-04-15 13:54:00,78.1,63.6,29.86,East,95,0.0,0.0,61,0.00,,---,0.00,VWS V14.01,2013-04-15 18:54:00,
2013-04-15 13:59:00,78.3,63.3,29.86,SSE,157,0.0,0.0,60,0.00,,---,0.00,VWS V14.01,2013-04-15 18:59:00,
2013-04-15 14:04:00,78.4,63.4,29.86,SE,140,0.0,0.0,60,0.00,,---,0.00,VWS V14.01,2013-04-15 19:04:00,
2013-04-15 14:09:00,78.4,63.8,29.86,SE,134,0.0,0.0,61,0.00,,---,0.00,VWS V14.01,2013-04-15 19:09:00,
2013-04-15 14:14:00,78.6,63.1,29.86,SE,131,0.0,0.0,59,0.00,,---,0.00,VWS V14.01,2013-04-15 19:14:00,
2013-04-15 14:19:00,78.6,63.6,29.85,SE,131,0.0,0.0,60,0.00,,---,0.00,VWS V14.01,2013-04-15 19:19:00,
2013-04-15 14:24:00,78.9,63.8,29.85,ESE,113,0.0,0.0,60,0.00,,---,0.00,VWS V14.01,2013-04-15 19:24:00,
2013-04-15 14:29:00,78.8,63.3,29.86,East,94,0.0,0.0,59,0.00,,---,0.00,VWS V14.01,2013-04-15 19:29:00,
2013-04-15 14:34:00,78.6,64.0,29.85,East,90,0.0,0.0,61,0.00,,---,0.00,VWS V14.01,2013-04-15 19:34:00,
2013-04-15 14:39:00,79.0,63.9,29.85,East,85,0.0,0.0,60,0.00,,---,0.00,VWS V14.01,2013-04-15 19:39:00,
2013-04-15 14:44:00,79.5,63.4,29.85,SE,140,0.0,0.0,58,0.00,,---,0.00,VWS V14.01,2013-04-15 19:44:00,
2013-04-15 14:49:00,79.3,63.3,29.85,SE,137,0.0,0.0,58,0.00,,---,0.00,VWS V14.01,2013-04-15 19:49:00,
2013-04-15 14:54:00,79.1,64.0,29.84,ESE,122,0.0,0.0,60,0.00,,---,0.00,VWS V14.01,2013-04-15 19:54:00,
2013-04-15 14:57:00,79.2,64.1,29.84,SE,130,0.0,0.0,60,0.00,,---,0.00,VWS V14.01,2013-04-15 19:57:00,
2013-04-15 15:01:00,79.6,64.0,29.84,South,188,0.0,0.0,59,0.00,,---,0.00,VWS V14.01,2013-04-15 20:01:00,
2013-04-15 15:02:00,79.6,64.0,29.84,ESE,119,0.0,0.0,59,0.00,,---,0.00,VWS V14.01,2013-04-15 20:02:00,
2013-04-15 15:07:00,79.8,63.2,29.84,SE,135,0.0,0.0,57,0.00,,---,0.00,VWS V14.01,2013-04-15 20:07:00,
2013-04-15 15:12:00,79.6,63.5,29.84,ESE,111,0.0,0.0,58,0.00,,---,0.00,VWS V14.01,2013-04-15 20:12:00,
2013-04-15 15:17:00,79.8,63.2,29.84,SE,132,0.0,0.0,57,0.00,,---,0.00,VWS V14.01,2013-04-15 20:17:00,
2013-04-15 15:22:00,80.4,64.3,29.84,SE,128,0.0,0.0,58,0.00,,---,0.00,VWS V14.01,2013-04-15 20:22:00,
2013-04-15 15:27:00,80.5,63.9,29.84,SE,134,0.0,0.0,57,0.00,,---,0.00,VWS V14.01,2013-04-15 20:27:00,
2013-04-15 15:32:00,80.2,63.6,29.83,SE,127,0.0,0.0,57,0.00,,---,0.00,VWS V14.01,2013-04-15 20:32:00,
2013-04-15 15:37:00,80.3,64.2,29.83,ESE,115,0.0,0.0,58,0.00,,---,0.00,VWS V14.01,2013-04-15 20:37:00,
2013-04-15 15:42:00,80.8,64.2,29.83,East,95,0.0,0.0,57,0.00,,---,0.00,VWS V14.01,2013-04-15 20:42:00,
2013-04-15 15:47:00,81.0,63.8,29.83,SE,146,0.0,0.0,56,0.00,,---,0.00,VWS V14.01,2013-04-15 20:47:00,
2013-04-15 15:52:00,81.1,63.4,29.83,SSE,159,0.0,0.0,55,0.00,,---,0.00,VWS V14.01,2013-04-15 20:52:00,
2013-04-15 15:57:00,81.3,64.1,29.83,SSE,161,0.0,0.0,56,0.00,,---,0.00,VWS V14.01,2013-04-15 20:57:00,
2013-04-15 16:02:00,81.5,63.3,29.83,SSE,151,0.0,0.0,54,0.00,,---,0.00,VWS V14.01,2013-04-15 21:02:00,
2013-04-15 16:07:00,81.7,63.5,29.83,ESE,123,0.0,0.0,54,0.00,,---,0.00,VWS V14.01,2013-04-15 21:07:00,
2013-04-15 16:12:00,82.0,64.3,29.82,ESE,122,0.0,0.0,55,0.00,,---,0.00,VWS V14.01,2013-04-15 21:12:00,
2013-04-15 16:17:00,82.3,63.5,29.82,SE,140,0.0,0.0,53,0.00,,---,0.00,VWS V14.01,2013-04-15 21:17:00,
2013-04-15 16:22:00,82.3,62.9,29.82,ESE,119,0.0,0.0,52,0.00,,---,0.00,VWS V14.01,2013-04-15 21:22:00,
2013-04-15 16:27:00,82.7,62.8,29.82,SE,136,0.0,0.0,51,0.00,,---,0.00,VWS V14.01,2013-04-15 21:27:00,
2013-04-15 16:32:00,83.1,62.0,29.82,South,178,0.0,0.0,49,0.00,,---,0.00,VWS V14.01,2013-04-15 21:32:00,
2013-04-15 16:37:00,83.2,62.1,29.82,SSE,153,0.0,0.0,49,0.00,,---,0.00,VWS V14.01,2013-04-15 21:37:00,
2013-04-15 16:42:00,83.6,63.0,29.82,SE,138,0.0,0.0,50,0.00,,---,0.00,VWS V14.01,2013-04-15 21:42:00,
2013-04-15 16:47:00,83.9,62.7,29.82,South,170,0.0,0.0,49,0.00,,---,0.00,VWS V14.01,2013-04-15 21:47:00,
2013-04-15 16:52:00,83.5,61.8,29.81,SSE,154,0.0,0.0,48,0.00,,---,0.00,VWS V14.01,2013-04-15 21:52:00,
2013-04-15 16:57:00,83.4,61.7,29.81,SSE,150,0.0,0.0,48,0.00,,---,0.00,VWS V14.01,2013-04-15 21:57:00,
2013-04-15 17:02:00,83.4,61.7,29.81,SE,137,0.0,0.0,48,0.00,,---,0.00,VWS V14.01,2013-04-15 22:02:00,
2013-04-15 17:07:00,83.6,61.8,29.81,SE,131,0.0,0.0,48,0.00,,---,0.00,VWS V14.01,2013-04-15 22:07:00,
2013-04-15 17:12:00,83.8,61.4,29.82,SSE,167,0.0,0.0,47,0.00,,---,0.00,VWS V14.01,2013-04-15 22:12:00,
2013-04-15 17:17:00,83.6,61.3,29.81,SE,141,0.0,0.0,47,0.00,,---,0.00,VWS V14.01,2013-04-15 22:17:00,
2013-04-15 17:22:00,83.4,61.7,29.81,SE,132,0.0,0.0,48,0.00,,---,0.00,VWS V14.01,2013-04-15 22:22:00,
2013-04-15 17:27:00,83.4,61.7,29.81,SE,145,0.0,0.0,48,0.00,,---,0.00,VWS V14.01,2013-04-15 22:27:00,
2013-04-15 17:32:00,83.3,62.2,29.81,SSE,161,0.0,0.0,49,0.00,,---,0.00,VWS V14.01,2013-04-15 22:32:00,
2013-04-15 17:37:00,83.3,61.0,29.82,SSE,160,0.0,0.0,47,0.00,,---,0.00,VWS V14.01,2013-04-15 22:37:00,
2013-04-15 17:42:00,83.0,61.3,29.81,SE,130,0.0,0.0,48,0.00,,---,0.00,VWS V14.01,2013-04-15 22:42:00,
2013-04-15 17:47:00,83.2,61.5,29.81,ESE,119,0.0,0.0,48,0.00,,---,0.00,VWS V14.01,2013-04-15 22:47:00,
2013-04-15 17:52:00,83.3,62.2,29.81,ESE,111,0.0,0.0,49,0.00,,---,0.00,VWS V14.01,2013-04-15 22:52:00,
2013-04-15 17:57:00,83.5,61.8,29.81,SSE,166,0.0,0.0,48,0.00,,---,0.00,VWS V14.01,2013-04-15 22:57:00,
2013-04-15 18:02:00,83.4,61.7,29.81,SSE,148,0.0,0.0,48,0.00,,---,0.00,VWS V14.01,2013-04-15 23:02:00,
2013-04-15 18:07:00,83.2,61.5,29.81,SSE,167,0.0,0.0,48,0.00,,---,0.00,VWS V14.01,2013-04-15 23:07:00,
2013-04-15 18:12:00,83.0,61.3,29.81,South,169,0.0,0.0,48,0.00,,---,0.00,VWS V14.01,2013-04-15 23:12:00,
2013-04-15 18:17:00,83.0,61.3,29.81,SSE,150,0.0,0.0,48,0.00,,---,0.00,VWS V14.01,2013-04-15 23:17:00,
2013-04-15 18:22:00,82.9,61.2,29.81,SE,142,0.0,0.0,48,0.00,,---,0.00,VWS V14.01,2013-04-15 23:22:00,
2013-04-15 18:27:00,82.5,60.8,29.81,SSE,166,0.0,0.0,48,0.00,,---,0.00,VWS V14.01,2013-04-15 23:27:00,
2013-04-15 18:32:00,82.4,61.3,29.81,SE,126,0.0,0.0,49,0.00,,---,0.00,VWS V14.01,2013-04-15 23:32:00,
2013-04-15 18:37:00,82.2,61.2,29.81,SSE,158,0.0,0.0,49,0.00,,---,0.00,VWS V14.01,2013-04-15 23:37:00,
2013-04-15 18:42:00,82.1,61.1,29.81,SE,138,0.0,0.0,49,0.00,,---,0.00,VWS V14.01,2013-04-15 23:42:00,
2013-04-15 18:47:00,81.9,61.5,29.81,ESE,115,0.0,0.0,50,0.00,,---,0.00,VWS V14.01,2013-04-15 23:47:00,
2013-04-15 18:52:00,81.6,61.7,29.81,SSE,157,0.0,0.0,51,0.00,,---,0.00,VWS V14.01,2013-04-15 23:52:00,
2013-04-15 18:57:00,81.4,62.1,29.82,East,94,0.0,0.0,52,0.00,,---,0.00,VWS V14.01,2013-04-15 23:57:00,
2013-04-15 19:02:00,81.1,61.8,29.82,ESE,114,0.0,0.0,52,0.00,,---,0.00,VWS V14.01,2013-04-16 00:02:00,
2013-04-15 19:07:00,80.7,62.0,29.82,ESE,106,0.0,0.0,53,0.00,,---,0.00,VWS V14.01,2013-04-16 00:07:00,
2013-04-15 19:12:00,80.4,62.2,29.82,SE,144,0.0,0.0,54,0.00,,---,0.00,VWS V14.01,2013-04-16 00:12:00,
2013-04-15 19:17:00,80.2,62.1,29.82,ESE,118,0.0,0.0,54,0.00,,---,0.00,VWS V14.01,2013-04-16 00:17:00,
2013-04-15 19:22:00,79.8,62.2,29.82,ESE,108,0.0,0.0,55,0.00,,---,0.00,VWS V14.01,2013-04-16 00:22:00,
2013-04-15 19:27:00,79.4,62.3,29.82,ESE,106,0.0,0.0,56,0.00,,---,0.00,VWS V14.01,2013-04-16 00:27:00,
2013-04-15 19:32:00,79.0,62.5,29.82,SE,132,0.0,0.0,57,0.00,,---,0.00,VWS V14.01,2013-04-16 00:32:00,
2013-04-15 19:37:00,78.6,62.6,29.82,SE,135,0.0,0.0,58,0.00,,---,0.00,VWS V14.01,2013-04-16 00:37:00,
2013-04-15 19:42:00,78.3,62.8,29.82,ESE,122,0.0,0.0,59,0.00,,---,0.00,VWS V14.01,2013-04-16 00:42:00,
2013-04-15 19:47:00,78.0,63.0,29.83,SE,127,0.0,0.0,60,0.00,,---,0.00,VWS V14.01,2013-04-16 00:47:00,
2013-04-15 19:52:00,77.8,63.3,29.83,SE,138,0.0,0.0,61,0.00,,---,0.00,VWS V14.01,2013-04-16 00:52:00,
2013-04-15 19:57:00,77.6,63.1,29.83,SSE,168,0.0,0.0,61,0.00,,---,0.00,VWS V14.01,2013-04-16 00:57:00,
2013-04-15 20:02:00,77.4,62.9,29.83,SE,130,0.0,0.0,61,0.00,,---,0.00,VWS V14.01,2013-04-16 01:02:00,
2013-04-15 20:07:00,77.0,63.0,29.83,SE,128,0.0,0.0,62,0.00,,---,0.00,VWS V14.01,2013-04-16 01:07:00,
2013-04-15 20:12:00,76.7,63.2,29.84,SE,133,0.0,0.0,63,0.00,,---,0.00,VWS V14.01,2013-04-16 01:12:00,
2013-04-15 20:17:00,76.6,63.1,29.84,ESE,113,0.0,0.0,63,0.00,,---,0.00,VWS V14.01,2013-04-16 01:17:00,
2013-04-15 20:22:00,76.4,63.3,29.84,East,98,0.0,0.0,64,0.00,,---,0.00,VWS V14.01,2013-04-16 01:22:00,
2013-04-15 20:27:00,76.1,63.0,29.85,ESE,105,0.0,0.0,64,0.00,,---,0.00,VWS V14.01,2013-04-16 01:27:00,
2013-04-15 20:32:00,75.9,62.9,29.85,East,94,0.0,0.0,64,0.00,,---,0.00,VWS V14.01,2013-04-16 01:32:00,
2013-04-15 20:37:00,75.7,63.1,29.85,ESE,114,0.0,0.0,65,0.00,,---,0.00,VWS V14.01,2013-04-16 01:37:00,
2013-04-15 20:42:00,75.3,63.2,29.86,SE,126,0.0,0.0,66,0.00,,---,0.00,VWS V14.01,2013-04-16 01:42:00,
2013-04-15 20:47:00,75.1,63.0,29.86,SE,125,0.0,0.0,66,0.00,,---,0.00,VWS V14.01,2013-04-16 01:47:00,
2013-04-15 20:52:00,74.9,62.8,29.86,SE,126,0.0,0.0,66,0.00,,---,0.00,VWS V14.01,2013-04-16 01:52:00,
2013-04-15 20:57:00,74.7,63.0,29.86,SE,139,0.0,0.0,67,0.00,,---,0.00,VWS V14.01,2013-04-16 01:57:00,
2013-04-15 21:02:00,74.5,62.8,29.86,ESE,115,0.0,0.0,67,0.00,,---,0.00,VWS V14.01,2013-04-16 02:02:00,
2013-04-15 21:07:00,74.3,63.1,29.87,ESE,107,0.0,0.0,68,0.00,,---,0.00,VWS V14.01,2013-04-16 02:07:00,
2013-04-15 21:12:00,74.2,63.0,29.87,SSE,161,0.0,0.0,68,0.00,,---,0.00,VWS V14.01,2013-04-16 02:12:00,
2013-04-15 21:17:00,74.0,63.2,29.87,ESE,109,0.0,0.0,69,0.00,,---,0.00,VWS V14.01,2013-04-16 02:17:00,
2013-04-15 21:22:00,73.9,63.1,29.87,SSE,158,0.0,0.0,69,0.00,,---,0.00,VWS V14.01,2013-04-16 02:22:00,
2013-04-15 21:27:00,73.7,62.9,29.88,SE,137,0.0,0.0,69,0.00,,---,0.00,VWS V14.01,2013-04-16 02:27:00,
2013-04-15 21:32:00,73.5,63.1,29.88,ESE,118,0.0,0.0,70,0.00,,---,0.00,VWS V14.01,2013-04-16 02:32:00,
2013-04-15 21:37:00,73.2,63.2,29.88,ESE,117,0.0,0.0,71,0.00,,---,0.00,VWS V14.01,2013-04-16 02:37:00,
2013-04-15 21:42:00,73.0,63.0,29.88,SE,144,0.0,0.0,71,0.00,,---,0.00,VWS V14.01,2013-04-16 02:42:00,
2013-04-15 21:47:00,72.9,63.0,29.88,ESE,107,0.0,0.0,71,0.00,,---,0.00,VWS V14.01,2013-04-16 02:47:00,
2013-04-15 21:52:00,72.8,63.3,29.88,SE,128,0.0,0.0,72,0.00,,---,0.00,VWS V14.01,2013-04-16 02:52:00,
2013-04-15 21:57:00,72.6,63.1,29.89,ESE,119,0.0,0.0,72,0.00,,---,0.00,VWS V14.01,2013-04-16 02:57:00,
2013-04-15 22:02:00,72.4,63.3,29.89,ESE,122,0.0,0.0,73,0.00,,---,0.00,VWS V14.01,2013-04-16 03:02:00,
2013-04-15 22:07:00,72.2,63.1,29.89,SE,142,0.0,0.0,73,0.00,,---,0.00,VWS V14.01,2013-04-16 03:07:00,
2013-04-15 22:12:00,72.1,63.4,29.89,SE,129,0.0,0.0,74,0.00,,---,0.00,VWS V14.01,2013-04-16 03:12:00,
2013-04-15 22:17:00,71.9,63.2,29.89,ESE,111,0.0,0.0,74,0.00,,---,0.00,VWS V14.01,2013-04-16 03:17:00,
2013-04-15 22:22:00,71.8,63.5,29.89,ESE,118,0.0,0.0,75,0.00,,---,0.00,VWS V14.01,2013-04-16 03:22:00,
2013-04-15 22:27:00,71.7,63.4,29.89,SE,126,0.0,0.0,75,0.00,,---,0.00,VWS V14.01,2013-04-16 03:27:00,
2013-04-15 22:32:00,71.6,63.3,29.89,ESE,107,0.0,0.0,75,0.00,,---,0.00,VWS V14.01,2013-04-16 03:32:00,
2013-04-15 22:37:00,71.5,63.5,29.89,ESE,121,0.0,0.0,76,0.00,,---,0.00,VWS V14.01,2013-04-16 03:37:00,
2013-04-15 22:42:00,71.4,63.5,29.89,East,98,0.0,0.0,76,0.00,,---,0.00,VWS V14.01,2013-04-16 03:42:00,
2013-04-15 22:47:00,71.3,63.3,29.89,SE,127,0.0,0.0,76,0.00,,---,0.00,VWS V14.01,2013-04-16 03:47:00,
2013-04-15 22:52:00,71.2,63.3,29.88,SE,146,0.0,0.0,76,0.00,,---,0.00,VWS V14.01,2013-04-16 03:52:00,
2013-04-15 22:57:00,71.2,63.6,29.89,East,93,0.0,0.0,77,0.00,,---,0.00,VWS V14.01,2013-04-16 03:57:00,
2013-04-15 23:00:00,71.1,63.5,29.89,SE,144,0.0,0.0,77,0.00,,---,0.00,VWS V14.01,2013-04-16 04:00:00,
2013-04-15 23:05:00,71.1,63.5,29.89,SE,126,0.0,0.0,77,0.00,,---,0.00,VWS V14.01,2013-04-16 04:05:00,
2013-04-15 23:10:00,71.0,63.8,29.89,SE,126,0.0,0.0,78,0.00,,---,0.00,VWS V14.01,2013-04-16 04:10:00,
2013-04-15 23:15:00,71.0,63.8,29.89,SE,136,0.0,0.0,78,0.00,,---,0.00,VWS V14.01,2013-04-16 04:15:00,
2013-04-15 23:20:00,71.0,63.8,29.89,SE,142,0.0,0.0,78,0.00,,---,0.00,VWS V14.01,2013-04-16 04:20:00,
2013-04-15 23:25:00,71.0,63.8,29.89,SE,141,0.0,0.0,78,0.00,,---,0.00,VWS V14.01,2013-04-16 04:25:00,
2013-04-15 23:30:00,70.9,63.7,29.89,SE,136,0.0,0.0,78,0.00,,---,0.00,VWS V14.01,2013-04-16 04:30:00,
2013-04-15 23:35:00,70.9,63.7,29.88,East,95,0.0,0.0,78,0.00,,---,0.00,VWS V14.01,2013-04-16 04:35:00,
2013-04-15 23:40:00,70.9,63.7,29.88,East,94,0.0,0.0,78,0.00,,---,0.00,VWS V14.01,2013-04-16 04:40:00,
2013-04-15 23:45:00,70.8,64.0,29.88,SSE,164,0.0,0.0,79,0.00,,---,0.00,VWS V14.01,2013-04-16 04:45:00,
2013-04-15 23:50:00,70.8,64.0,29.88,SE,126,0.0,0.0,79,0.00,,---,0.00,VWS V14.01,2013-04-16 04:50:00,
2013-04-15 23:55:00,70.8,64.0,29.88,SSE,161,0.0,0.0,79,0.00,,---,0.00,VWS V14.01,2013-04-16 04:55:00,